When you browse on this site, cookies collect data to enhance your experience and personalize the content and advertising you see.
Visit our Privacy Policy to learn more. By continuing to use the site, you agree to this use of cookies and data.
  • In Spain
  • List of Countries
  • For 7 days
  • Water Temperature
  • Satellite Maps
  • Weather Map
  • Weather Widgets
  • user-avatar
    Login

    Hourly Weather Santiago del Estero

    Today, 19 December, Wednesday

    Time Temperature Precipitation Wind Pressure Humidity
    00:00 +21°C° 0 mm 2 mps 744 mmHg 90%
    01:00 +21°C° 0 mm 2 mps 743 mmHg 90%
    02:00 +21°C° 0 mm 2 mps 743 mmHg 90%
    03:00 +22°C° 0 mm 1 mps 742 mmHg 91%
    04:00 +21°C° 0 mm 1 mps 742 mmHg 91%
    05:00 +21°C° 0 mm 1 mps 742 mmHg 92%
    06:00 +22°C° 0 mm 1 mps 742 mmHg 88%
    07:00 +23°C° 0 mm 1 mps 742 mmHg 84%
    08:00 +24°C° 0 mm 1 mps 742 mmHg 80%
    09:00 +25°C° 0 mm 1 mps 742 mmHg 76%
    10:00 +26°C° 0 mm 2 mps 742 mmHg 71%
    11:00 +28°C° 0 mm 2 mps 741 mmHg 67%
    12:00 +29°C° 0 mm 2 mps 741 mmHg 64%
    13:00 +30°C° 0 mm 2 mps 740 mmHg 60%
    14:00 +31°C° 0 mm 2 mps 740 mmHg 57%
    15:00 +31°C° 0 mm 2 mps 739 mmHg 58%
    16:00 +31°C° 0 mm 3 mps 739 mmHg 59%
    17:00 +31°C° 0 mm 3 mps 738 mmHg 60%
    18:00 +29°C° 0 mm 3 mps 738 mmHg 65%
    19:00 +28°C° 0 mm 2 mps 738 mmHg 71%
    20:00 +26°C° 0 mm 2 mps 738 mmHg 76%
    21:00 +26°C° 0 mm 2 mps 739 mmHg 79%
    22:00 +25°C° 0 mm 2 mps 739 mmHg 82%
    23:00 +25°C° 0 mm 2 mps 739 mmHg 84%

    Tomorrow, 20 December, Thursday

    Time Temperature Precipitation Wind Pressure Humidity
    00:00 +24°C° 0 mm 1 mps 738 mmHg 87%
    01:00 +24°C° 0 mm 1 mps 738 mmHg 89%
    02:00 +23°C° 0 mm 1 mps 737 mmHg 91%
    03:00 +23°C° 0 mm 1 mps 737 mmHg 92%
    04:00 +23°C° 0 mm 1 mps 736 mmHg 93%
    05:00 +23°C° 0 mm 2 mps 736 mmHg 93%
    06:00 +25°C° 0 mm 2 mps 737 mmHg 88%
    07:00 +26°C° 0 mm 2 mps 738 mmHg 82%
    08:00 +28°C° 0 mm 2 mps 738 mmHg 77%
    09:00 +29°C° 0 mm 2 mps 738 mmHg 72%
    10:00 +30°C° 0 mm 2 mps 738 mmHg 67%
    11:00 +31°C° 0 mm 2 mps 738 mmHg 63%
    12:00 +32°C° 0 mm 2 mps 738 mmHg 60%
    13:00 +34°C° 0 mm 2 mps 737 mmHg 56%
    14:00 +35°C° 0 mm 2 mps 737 mmHg 53%
    15:00 +35°C° 0 mm 2 mps 736 mmHg 52%
    16:00 +35°C° 0 mm 3 mps 736 mmHg 52%
    17:00 +35°C° 0 mm 3 mps 736 mmHg 51%
    18:00 +34°C° 0 mm 3 mps 736 mmHg 56%
    19:00 +31°C° 0 mm 2 mps 737 mmHg 61%
    20:00 +30°C° 0 mm 2 mps 737 mmHg 66%
    21:00 +29°C° 0 mm 3 mps 738 mmHg 69%
    22:00 +28°C° 0 mm 3 mps 739 mmHg 73%
    23:00 +28°C° 0 mm 3 mps 739 mmHg 76%

    Day after tomorrow, 21 December, Friday

    Time Temperature Precipitation Wind Pressure Humidity
    00:00 +27°C° 0.2 mm 3 mps 739 mmHg 76%
    01:00 +27°C° 0.2 mm 4 mps 739 mmHg 77%
    02:00 +26°C° 0.2 mm 4 mps 739 mmHg 78%
    03:00 +26°C° 0.1 mm 4 mps 740 mmHg 77%
    04:00 +25°C° 0.1 mm 4 mps 740 mmHg 76%
    05:00 +23°C° 0.1 mm 4 mps 741 mmHg 75%
    06:00 +23°C° 0.1 mm 4 mps 741 mmHg 73%
    07:00 +25°C° 0.1 mm 4 mps 742 mmHg 70%
    08:00 +26°C° 0.1 mm 4 mps 743 mmHg 67%
    09:00 +27°C° 0 mm 4 mps 743 mmHg 61%
    10:00 +29°C° 0 mm 5 mps 743 mmHg 54%
    11:00 +32°C° 0 mm 5 mps 743 mmHg 48%
    12:00 +33°C° 0 mm 5 mps 742 mmHg 42%
    13:00 +34°C° 0 mm 4 mps 741 mmHg 36%
    14:00 +35°C° 0 mm 4 mps 740 mmHg 31%
    15:00 +34°C° 0 mm 4 mps 740 mmHg 31%
    16:00 +34°C° 0 mm 4 mps 740 mmHg 32%
    17:00 +34°C° 0 mm 4 mps 739 mmHg 33%
    18:00 +31°C° 0 mm 3 mps 740 mmHg 38%
    19:00 +29°C° 0 mm 3 mps 740 mmHg 42%
    20:00 +27°C° 0 mm 2 mps 741 mmHg 47%
    21:00 +26°C° 0 mm 2 mps 741 mmHg 50%
    22:00 +26°C° 0 mm 2 mps 741 mmHg 54%
    23:00 +25°C° 0 mm 2 mps 742 mmHg 57%

    22 December, Saturday

    Time Temperature Precipitation Wind Pressure Humidity
    00:00 +24°C° 0 mm 1 mps 741 mmHg 61%
    01:00 +24°C° 0 mm 1 mps 741 mmHg 65%
    02:00 +23°C° 0 mm 1 mps 740 mmHg 69%
    03:00 +23°C° 0 mm 1 mps 741 mmHg 71%
    04:00 +20°C° 0 mm 0 mps 741 mmHg 73%
    05:00 +20°C° 0 mm 0 mps 741 mmHg 74%
    06:00 +24°C° 0 mm 1 mps 741 mmHg 69%
    07:00 +26°C° 0 mm 1 mps 742 mmHg 63%
    08:00 +28°C° 0 mm 1 mps 743 mmHg 58%
    09:00 +29°C° 0 mm 2 mps 743 mmHg 52%
    10:00 +31°C° 0 mm 2 mps 743 mmHg 46%
    11:00 +32°C° 0 mm 2 mps 742 mmHg 41%
    12:00 +34°C° 0 mm 2 mps 742 mmHg 38%
    13:00 +35°C° 0 mm 2 mps 741 mmHg 35%
    14:00 +36°C° 0 mm 2 mps 740 mmHg 32%
    15:00 +36°C° 0 mm 3 mps 740 mmHg 33%
    16:00 +36°C° 0 mm 3 mps 740 mmHg 33%
    17:00 +36°C° 0 mm 3 mps 739 mmHg 33%
    18:00 +34°C° 0 mm 3 mps 740 mmHg 39%
    19:00 +31°C° 0 mm 3 mps 740 mmHg 45%
    20:00 +29°C° 0 mm 3 mps 741 mmHg 51%
    21:00 +28°C° 0 mm 3 mps 741 mmHg 54%
    22:00 +27°C° 0 mm 3 mps 742 mmHg 57%
    23:00 +26°C° 0 mm 2 mps 742 mmHg 59%

    23 December, Sunday

    Time Temperature Precipitation Wind Pressure Humidity
    00:00 +26°C° 0 mm 2 mps 742 mmHg 62%
    01:00 +25°C° 0 mm 2 mps 742 mmHg 64%
    02:00 +25°C° 0 mm 1 mps 741 mmHg 66%
    03:00 +24°C° 0 mm 1 mps 741 mmHg 68%
    04:00 +24°C° 0 mm 1 mps 742 mmHg 70%
    05:00 +21°C° 0 mm 0 mps 742 mmHg 72%
    06:00 +25°C° 0 mm 1 mps 742 mmHg 67%
    07:00 +27°C° 0 mm 1 mps 743 mmHg 62%
    08:00 +29°C° 0 mm 2 mps 744 mmHg 57%
    09:00 +30°C° 0 mm 2 mps 743 mmHg 52%
    10:00 +32°C° 0 mm 2 mps 743 mmHg 47%
    11:00 +34°C° 0 mm 2 mps 743 mmHg 42%
    12:00 +35°C° 0 mm 2 mps 742 mmHg 39%
    13:00 +36°C° 0 mm 2 mps 742 mmHg 36%
    14:00 +37°C° 0 mm 2 mps 741 mmHg 33%
    15:00 +37°C° 0 mm 3 mps 741 mmHg 33%
    16:00 +37°C° 0 mm 3 mps 741 mmHg 33%
    17:00 +37°C° 0 mm 4 mps 740 mmHg 33%
    18:00 +35°C° 0 mm 4 mps 741 mmHg 39%
    19:00 +33°C° 0 mm 4 mps 741 mmHg 46%
    20:00 +30°C° 0 mm 4 mps 742 mmHg 52%
    21:00 +29°C° 0 mm 4 mps 742 mmHg 56%
    22:00 +28°C° 0 mm 3 mps 742 mmHg 59%
    23:00 +27°C° 0 mm 3 mps 743 mmHg 63%

    24 December, Monday

    Time Temperature Precipitation Wind Pressure Humidity
    00:00 +26°C° 0 mm 2 mps 742 mmHg 65%
    01:00 +25°C° 0 mm 2 mps 742 mmHg 66%
    02:00 +25°C° 0 mm 1 mps 742 mmHg 68%
    03:00 +24°C° 0 mm 1 mps 742 mmHg 69%
    04:00 +24°C° 0 mm 1 mps 742 mmHg 70%
    05:00 +23°C° 0 mm 1 mps 742 mmHg 71%
    06:00 +25°C° 0 mm 2 mps 742 mmHg 67%
    07:00 +26°C° 0 mm 2 mps 743 mmHg 62%
    08:00 +28°C° 0 mm 2 mps 743 mmHg 58%
    09:00 +29°C° 0 mm 2 mps 743 mmHg 53%
    10:00 +31°C° 0 mm 2 mps 743 mmHg 48%
    11:00 +32°C° 0 mm 2 mps 742 mmHg 42%
    12:00 +34°C° 0 mm 2 mps 742 mmHg 39%
    13:00 +35°C° 0 mm 2 mps 741 mmHg 36%
    14:00 +36°C° 0 mm 3 mps 741 mmHg 33%
    15:00 +36°C° 0 mm 3 mps 740 mmHg 33%
    16:00 +36°C° 0 mm 3 mps 740 mmHg 32%
    17:00 +36°C° 0 mm 3 mps 739 mmHg 32%
    18:00 +34°C° 0 mm 4 mps 740 mmHg 37%
    19:00 +32°C° 0 mm 4 mps 740 mmHg 42%
    20:00 +29°C° 0 mm 4 mps 740 mmHg 47%
    21:00 +28°C° 0 mm 4 mps 740 mmHg 51%
    22:00 +27°C° 0 mm 3 mps 741 mmHg 54%
    23:00 +26°C° 0 mm 3 mps 741 mmHg 57%
    Show more